Weather in Arinsal

Andorra     42°37′04″N   1°32′20″E
temp.,
°C
wind,
m/s
gust,
m/s
humid.,
%
clouds,
%
prec.,
mm/h
press.,
hPa
HPBL,
m
7 may, fri
fri723:00+5s11875 0.1 101716
02:00+4e018536 0.1 101712
05:00+5nne228539 0.0 101725
08:00+6n228668 0.0 101781
11:00+11nnw116767 0.2 10161012
14:00+11w236979 0.9 1017961
17:00+12wnw246031 1.0 10161187
20:00+10nnw227648 1.6 1017137
8 may, sat
sat823:00+6ne11886 0.1 102012
02:00+5ene019332 0.1 102014
05:00+5nne019196 0.0 101913
08:00+7ese1186100 0.0 101958
11:00+13ssw45648 0.0 1017923
14:00+16ssw46475 0.0 10151644
17:00+16ssw574539 0.0 10141791
20:00+12ssw4666100 0.0 1014655
9 may, sun
sun923:00+7s2391100 0.0 101690
02:00+6sse2382100 0.0 101581
05:00+4ese2373100 0.0 101447
08:00+6se2462100 0.0 1013115
11:00+12s7144484 0.0 10091932
14:00+7se3589100 2.6 1010297
17:00+8sse3790100 3.2 1006436
20:00+8s2494100 5.3 1004297
10 may, mon
mon1023:00+5s4999100 16.2 1009869
02:00+4sse2397100 16.9 1010192
05:00+2se129719 0.1 101132
08:00+4s1191100 0.1 101086
11:00+7ssw466926 0.1 10091045
14:00+10ssw575227 0.3 10071874
17:00+9sw465797 0.2 10071698
20:00+5s237599 0.8 1007388
11 may, tue
tue1123:00+1se139986 9.3 1012116
02:00−2ne129841 9.3 101330
05:00−2ne1297100 0.0 101119
08:00+1ssw1195100 0.1 1009138
11:00+2wsw1198100 2.7 1009335
14:00+1nnw2497100 6.9 1010391
17:00+2nnw388298 2.0 10111259
20:000nnw359033 2.9 1016440